AFL037 UUEE-URWW

Flight info

Callsign AFL037
Flight time N/A
Altitude 37000
Route UUEE/24C TOGMO M56 ABAGI/K0839F350 W21 NATIT NATIT2J
Aircraft A21N/M-SDE2E3FGHIRWXY/LB1

Departure

Time N/A
Airport Sheremetyevo International Airport (UUEE)

Arrival

Time 2026-04-25 23:30
Airport Volgograd International Airport (URWW)
Time Latitude Longitude Altitude Speed Heading
2026-04-25 22:53 52.49945 43.53186 36868 ft 473 kts 158°
2026-04-25 22:53 52.42995 43.58198 36882 ft 474 kts 158°
2026-04-25 22:54 52.36968 43.62534 36884 ft 473 kts 158°
2026-04-25 22:54 52.30939 43.66857 36883 ft 472 kts 158°
2026-04-25 22:55 52.24925 43.71156 36888 ft 472 kts 158°
2026-04-25 22:55 52.18955 43.75411 36891 ft 471 kts 158°
2026-04-25 22:56 52.12952 43.79677 36893 ft 471 kts 159°
2026-04-25 22:56 52.06944 43.83933 36890 ft 470 kts 159°
2026-04-25 22:57 52.00949 43.88168 36897 ft 470 kts 159°
2026-04-25 22:57 51.94947 43.92395 36903 ft 470 kts 159°
2026-04-25 22:58 51.89002 43.96570 36906 ft 470 kts 159°
2026-04-25 22:58 51.82989 44.00784 36913 ft 470 kts 158°
2026-04-25 22:59 51.77044 44.05179 36913 ft 468 kts 162°
2026-04-25 22:59 51.73924 44.06601 36912 ft 464 kts 173°
2026-04-25 22:59 51.70742 44.07343 36916 ft 463 kts 174°
2026-04-25 23:00 51.64390 44.08624 36921 ft 462 kts 176°
2026-04-25 23:00 51.57999 44.09711 36927 ft 462 kts 177°
2026-04-25 23:01 51.51606 44.10837 36929 ft 463 kts 175°
2026-04-25 23:01 51.45215 44.12082 36936 ft 462 kts 176°
2026-04-25 23:02 51.38817 44.13174 36938 ft 462 kts 176°
2026-04-25 23:02 51.32463 44.14230 36948 ft 462 kts 178°
2026-04-25 23:03 51.26052 44.15042 36951 ft 462 kts 179°
2026-04-25 23:03 51.19641 44.15734 36956 ft 462 kts 179°
2026-04-25 23:04 51.14311 44.16295 36960 ft 462 kts 179°
2026-04-25 23:04 51.06818 44.17085 36982 ft 461 kts 179°
2026-04-25 23:05 51.00416 44.17759 36957 ft 460 kts 179°
2026-04-25 23:05 50.94023 44.18431 36957 ft 460 kts 179°
2026-04-25 23:06 50.87636 44.19100 36957 ft 460 kts 179°
2026-04-25 23:06 50.81308 44.19762 36960 ft 460 kts 179°
2026-04-25 23:07 50.74910 44.20429 36964 ft 460 kts 179°
2026-04-25 23:07 50.71718 44.20761 36856 ft 460 kts 179°
2026-04-25 23:07 50.69561 44.20985 36682 ft 459 kts 180°
2026-04-25 23:08 50.65355 44.21422 36360 ft 458 kts 180°
2026-04-25 23:08 50.62175 44.21751 35873 ft 460 kts 180°
2026-04-25 23:08 50.58964 44.22082 35140 ft 463 kts 180°
2026-04-25 23:08 50.55728 44.22415 34358 ft 466 kts 180°
2026-04-25 23:09 50.52486 44.22750 33526 ft 468 kts 180°
2026-04-25 23:09 50.49245 44.23086 32823 ft 466 kts 180°
2026-04-25 23:09 50.46008 44.23420 32052 ft 465 kts 180°
2026-04-25 23:09 50.42788 44.23752 31287 ft 464 kts 180°
2026-04-25 23:10 50.40659 44.23972 30902 ft 460 kts 180°
2026-04-25 23:10 50.36408 44.24409 30034 ft 456 kts 180°
2026-04-25 23:10 50.33264 44.24732 29416 ft 449 kts 180°
2026-04-25 23:10 50.31212 44.24943 29017 ft 444 kts 180°
2026-04-25 23:11 50.27132 44.25361 28249 ft 435 kts 180°
2026-04-25 23:11 50.25142 44.25564 27850 ft 431 kts 180°
2026-04-25 23:11 50.21208 44.25965 27087 ft 423 kts 181°
2026-04-25 23:11 50.18291 44.26262 26505 ft 417 kts 181°
2026-04-25 23:12 50.16347 44.26460 26140 ft 414 kts 181°
2026-04-25 23:12 50.12568 44.26844 25403 ft 407 kts 181°
2026-04-25 23:12 50.09756 44.27129 24848 ft 403 kts 181°
2026-04-25 23:12 50.07872 44.27321 24467 ft 400 kts 182°
2026-04-25 23:13 50.05151 44.27597 23939 ft 395 kts 182°
2026-04-25 23:13 50.02411 44.27870 22612 ft 393 kts 181°
2026-04-25 23:13 49.99654 44.28137 22255 ft 407 kts 180°
2026-04-25 23:13 49.96799 44.28417 21984 ft 412 kts 180°
2026-04-25 23:14 49.93961 44.28706 21630 ft 408 kts 180°
2026-04-25 23:14 49.91131 44.28996 21055 ft 406 kts 180°
2026-04-25 23:14 49.88329 44.29282 20479 ft 402 kts 181°
2026-04-25 23:14 49.85551 44.29563 19913 ft 398 kts 181°
2026-04-25 23:15 49.82800 44.29839 19349 ft 394 kts 181°
2026-04-25 23:15 49.80075 44.30113 18785 ft 391 kts 181°
2026-04-25 23:15 49.77373 44.30382 18197 ft 388 kts 181°
2026-04-25 23:15 49.74693 44.30649 17620 ft 383 kts 181°
2026-04-25 23:16 49.72046 44.30913 17062 ft 378 kts 181°
2026-04-25 23:16 49.69433 44.31173 16519 ft 374 kts 181°
2026-04-25 23:16 49.66849 44.31430 15971 ft 370 kts 181°
2026-04-25 23:16 49.64286 44.31685 15437 ft 367 kts 181°
2026-04-25 23:17 49.61751 44.31936 14899 ft 364 kts 181°
2026-04-25 23:17 49.59235 44.32185 14365 ft 361 kts 181°
2026-04-25 23:17 49.56737 44.32442 13831 ft 359 kts 180°
2026-04-25 23:17 49.54259 44.32906 13258 ft 357 kts 178°
2026-04-25 23:18 49.51840 44.33380 12744 ft 353 kts 178°
2026-04-25 23:18 49.49418 44.33853 12226 ft 349 kts 178°
2026-04-25 23:18 49.47019 44.34318 11705 ft 346 kts 178°
2026-04-25 23:18 49.44639 44.34777 11194 ft 343 kts 177°
2026-04-25 23:19 49.42281 44.35230 10676 ft 340 kts 177°
2026-04-25 23:19 49.39945 44.35678 10303 ft 333 kts 177°
2026-04-25 23:19 49.37692 44.36115 10164 ft 319 kts 177°
2026-04-25 23:19 49.35532 44.36540 10341 ft 305 kts 179°
2026-04-25 23:20 49.33469 44.36946 10186 ft 293 kts 179°
2026-04-25 23:20 49.31458 44.37331 9812 ft 290 kts 179°
2026-04-25 23:20 49.29456 44.37708 9364 ft 289 kts 179°
2026-04-25 23:20 49.27473 44.38081 8944 ft 287 kts 179°
2026-04-25 23:21 49.25494 44.38456 8510 ft 286 kts 179°
2026-04-25 23:21 49.23524 44.38831 8077 ft 284 kts 179°
2026-04-25 23:21 49.21570 44.39205 7704 ft 281 kts 179°
2026-04-25 23:21 49.19639 44.39574 7331 ft 278 kts 178°
2026-04-25 23:22 49.17733 44.39939 6948 ft 275 kts 178°
2026-04-25 23:22 49.15835 44.40301 6599 ft 273 kts 178°
2026-04-25 23:22 49.13958 44.40659 6225 ft 271 kts 178°
2026-04-25 23:23 49.10264 44.41363 5506 ft 265 kts 178°
2026-04-25 23:23 49.08444 44.41709 5156 ft 262 kts 178°
2026-04-25 23:23 49.06652 44.42050 4815 ft 260 kts 178°
2026-04-25 23:23 49.04885 44.42385 4439 ft 261 kts 178°
2026-04-25 23:24 49.03498 44.42647 4159 ft 260 kts 178°
2026-04-25 23:24 49.01705 44.42987 3812 ft 258 kts 178°
2026-04-25 23:24 48.99929 44.43324 3459 ft 256 kts 178°
2026-04-25 23:24 48.98163 44.43658 3104 ft 254 kts 178°
2026-04-25 23:25 48.96415 44.43990 2759 ft 253 kts 178°
2026-04-25 23:25 48.94679 44.44319 2414 ft 251 kts 178°
2026-04-25 23:25 48.92948 44.44647 2079 ft 249 kts 178°
2026-04-25 23:25 48.91235 44.44970 1774 ft 247 kts 178°
2026-04-25 23:26 48.89509 44.45270 1694 ft 251 kts 178°
2026-04-25 23:26 48.87840 44.45582 1693 ft 237 kts 178°
2026-04-25 23:26 48.86214 44.45899 1689 ft 232 kts 178°
2026-04-25 23:26 48.84668 44.46204 1701 ft 214 kts 178°
2026-04-25 23:27 48.83230 44.46456 1700 ft 208 kts 186°
2026-04-25 23:27 48.81956 44.45858 1720 ft 179 kts 222°
2026-04-25 23:27 48.81320 44.44451 1703 ft 150 kts 249°
2026-04-25 23:27 48.80962 44.43124 1693 ft 121 kts 249°
2026-04-25 23:28 48.80656 44.42016 1703 ft 114 kts 249°
2026-04-25 23:28 48.80327 44.40935 1600 ft 113 kts 247°
2026-04-25 23:28 48.80023 44.39817 1177 ft 117 kts 249°
2026-04-25 23:28 48.79697 44.38667 1079 ft 118 kts 242°
2026-04-25 23:29 48.79304 44.37553 882 ft 123 kts 243°
2026-04-25 23:29 48.78927 44.36380 680 ft 123 kts 243°
2026-04-25 23:29 48.78549 44.35211 541 ft 124 kts 243°
2026-04-25 23:29 48.78181 44.34083 466 ft 108 kts 243°
2026-04-25 23:30 48.77921 44.33250 448 ft 67 kts 244°
2026-04-25 23:30 48.77753 44.32719 426 ft 52 kts 246°
2026-04-25 23:30 48.77604 44.32235 420 ft 49 kts 244°
2026-04-25 23:30 48.77520 44.31965 411 ft 20 kts 244°
2026-04-25 23:31 48.77554 44.31812 409 ft 16 kts 330°
2026-04-25 23:31 48.77572 44.31799 414 ft 0 kts 336°
2026-04-25 23:32 48.77580 44.31794 414 ft 5 kts 337°
2026-04-25 23:32 48.77642 44.31803 418 ft 13 kts 34°
2026-04-25 23:33 48.77692 44.31931 418 ft 16 kts 64°
2026-04-25 23:33 48.77741 44.32086 422 ft 17 kts 65°
2026-04-25 23:33 48.77794 44.32252 421 ft 18 kts 64°
2026-04-25 23:33 48.77850 44.32427 428 ft 19 kts 64°
2026-04-25 23:34 48.77908 44.32610 424 ft 20 kts 64°
2026-04-25 23:34 48.77970 44.32800 432 ft 20 kts 63°
2026-04-25 23:34 48.78025 44.32998 434 ft 21 kts 66°
2026-04-25 23:34 48.78085 44.33201 448 ft 21 kts 62°
2026-04-25 23:35 48.78154 44.33402 453 ft 22 kts 62°
2026-04-25 23:35 48.78226 44.33601 458 ft 22 kts 60°
2026-04-25 23:35 48.78297 44.33801 464 ft 21 kts 61°
2026-04-25 23:35 48.78353 44.34009 468 ft 22 kts 66°
2026-04-25 23:36 48.78454 44.34173 469 ft 23 kts 13°
2026-04-25 23:36 48.78621 44.34149 468 ft 24 kts 15°
2026-04-25 23:36 48.78692 44.34344 470 ft 22 kts 68°
2026-04-25 23:36 48.78751 44.34570 473 ft 24 kts 69°
2026-04-25 23:37 48.78806 44.34804 477 ft 24 kts 70°
2026-04-25 23:37 48.78869 44.35042 480 ft 24 kts 60°
2026-04-25 23:37 48.78961 44.35251 479 ft 25 kts 69°
2026-04-25 23:37 48.78986 44.35379 478 ft 0 kts 73°
2026-04-25 23:38 48.78987 44.35383 478 ft 2 kts 68°
2026-04-25 23:38 48.79013 44.35404 479 ft 0 kts 23°
2026-04-25 23:38 48.79014 44.35404 479 ft 0 kts 14°
2026-04-25 23:38 48.79015 44.35402 479 ft 0 kts 359°
2026-04-25 23:39 48.79016 44.35400 479 ft 1 kts 343°
2026-04-25 23:39 48.79038 44.35392 479 ft 6 kts 344°
2026-04-25 23:39 48.79050 44.35386 477 ft 0 kts 340°